2916500231,1994,04,01,00,61
2916500231,1994,04,01,01,61
2916500231,1994,04,01,03,22
2916500231,1994,04,01,04,6
2916500231,1994,04,01,05,14
2916500231,1994,04,01,06,6
2916500231,1994,04,01,07,22
2916500231,1994,04,01,08,45
2916500231,1994,04,01,09,61
2916500231,1994,04,01,10,92
2916500231,1994,04,01,11,115
2916500231,1994,04,01,12,115
2916500231,1994,04,01,13,123
2916500231,1994,04,01,14,131
2916500231,1994,04,01,15,131
2916500231,1994,04,01,16,115
2916500231,1994,04,01,17,115
2916500231,1994,04,01,18,108
2916500231,1994,04,01,19,115
2916500231,1994,04,01,20,108
2916500231,1994,04,01,21,61
2916500231,1994,04,01,22,61
2916500231,1994,04,01,23,61
2916500231,1994,04,02,00,61
2916500231,1994,04,02,01,68
2916500231,1994,04,02,02,76
2916500231,1994,04,02,03,84
2916500231,1994,04,02,04,76
2916500231,1994,04,02,05,61
2916500231,1994,04,02,06,45
2916500231,1994,04,02,08,53
2916500231,1994,04,02,09,53
2916500231,1994,04,02,10,61
2916500231,1994,04,02,11,61
2916500231,1994,04,02,12,53
2916500231,1994,04,02,13,61
2916500231,1994,04,02,14,61
2916500231,1994,04,02,15,68
2916500231,1994,04,02,16,53
2916500231,1994,04,02,17,37
2916500231,1994,04,02,18,37
2916500231,1994,04,02,19,22
2916500231,1994,04,02,20,37
2916500231,1994,04,02,21,53
2916500231,1994,04,02,22,45
2916500231,1994,04,02,23,45
2916500231,1994,04,03,00,53
2916500231,1994,04,03,01,61
2916500231,1994,04,03,02,61
2916500231,1994,04,03,03,61
2916500231,1994,04,03,04,53
2916500231,1994,04,03,05,45
2916500231,1994,04,03,06,45
2916500231,1994,04,03,07,61
2916500231,1994,04,03,08,76
2916500231,1994,04,03,09,84
2916500231,1994,04,03,10,84
2916500231,1994,04,03,11,84
2916500231,1994,04,03,13,84
2916500231,1994,04,03,14,84
2916500231,1994,04,03,15,92
2916500231,1994,04,03,16,84
2916500231,1994,04,03,17,84
2916500231,1994,04,03,18,84
2916500231,1994,04,03,19,76
2916500231,1994,04,03,20,68
2916500231,1994,04,03,21,61
2916500231,1994,04,03,22,68
2916500231,1994,04,03,23,68
2916500231,1994,04,04,00,76
2916500231,1994,04,04,01,76
2916500231,1994,04,04,02,76
2916500231,1994,04,04,03,68
2916500231,1994,04,04,04,61
2916500231,1994,04,04,05,53
2916500231,1994,04,04,07,53
2916500231,1994,04,04,08,61
2916500231,1994,04,04,09,61
2916500231,1994,04,04,11,68
2916500231,1994,04,04,12,68
2916500231,1994,04,04,13,84
2916500231,1994,04,04,14,84
2916500231,1994,04,04,15,76
2916500231,1994,04,04,17,92
2916500231,1994,04,04,18,108
2916500231,1994,04,04,19,100
2916500231,1994,04,04,20,100
2916500231,1994,04,04,21,84
2916500231,1994,04,04,22,29
2916500231,1994,04,04,23,29
2916500231,1994,04,05,00,45
2916500231,1994,04,05,01,37
2916500231,1994,04,05,02,45
2916500231,1994,04,05,03,61
2916500231,1994,04,05,04,53
2916500231,1994,04,05,05,45
2916500231,1994,04,05,06,53
2916500231,1994,04,05,07,53
2916500231,1994,04,05,08,53
2916500231,1994,04,05,09,53
2916500231,1994,04,05,10,53
2916500231,1994,04,05,11,53
2916500231,1994,04,05,12,45
2916500231,1994,04,05,13,61
2916500231,1994,04,05,14,61
2916500231,1994,04,05,15,61
2916500231,1994,04,05,16,61
2916500231,1994,04,05,17,68
2916500231,1994,04,05,18,61
2916500231,1994,04,05,19,61
2916500231,1994,04,05,20,61
2916500231,1994,04,05,22,61
2916500231,1994,04,05,23,61
2916500231,1994,04,06,00,61
2916500231,1994,04,06,01,61
2916500231,1994,04,06,03,53
2916500231,1994,04,06,04,53
2916500231,1994,04,06,05,45
2916500231,1994,04,06,06,37
2916500231,1994,04,06,07,45
2916500231,1994,04,06,08,53
2916500231,1994,04,06,09,68
2916500231,1994,04,06,10,68
2916500231,1994,04,06,11,68
2916500231,1994,04,06,12,76
2916500231,1994,04,06,13,84
2916500231,1994,04,06,14,84
2916500231,1994,04,06,15,84
2916500231,1994,04,06,16,84
2916500231,1994,04,06,17,84
2916500231,1994,04,06,18,61
2916500231,1994,04,06,19,29
2916500231,1994,04,06,20,37
2916500231,1994,04,06,21,14
2916500231,1994,04,06,22,22
2916500231,1994,04,06,23,45
2916500231,1994,04,07,00,61
2916500231,1994,04,07,01,61
2916500231,1994,04,07,02,53
2916500231,1994,04,07,03,53
2916500231,1994,04,07,04,53
2916500231,1994,04,07,05,22
2916500231,1994,04,07,06,6
2916500231,1994,04,07,08,29
2916500231,1994,04,07,09,68
2916500231,1994,04,07,10,76
2916500231,1994,04,07,11,84
2916500231,1994,04,07,12,100
2916500231,1994,04,07,13,108
2916500231,1994,04,07,14,100
2916500231,1994,04,07,15,100
2916500231,1994,04,07,16,100
2916500231,1994,04,07,17,100
2916500231,1994,04,07,18,92
2916500231,1994,04,07,19,84
2916500231,1994,04,07,20,76
2916500231,1994,04,07,21,76
2916500231,1994,04,07,22,76
2916500231,1994,04,07,23,84
2916500231,1994,04,08,00,76
2916500231,1994,04,08,01,76
2916500231,1994,04,08,02,84
2916500231,1994,04,08,03,76
2916500231,1994,04,08,04,76
2916500231,1994,04,08,05,76
2916500231,1994,04,08,06,68
2916500231,1994,04,08,07,61
2916500231,1994,04,08,08,68
2916500231,1994,04,08,09,68
2916500231,1994,04,08,10,76
2916500231,1994,04,08,11,84
2916500231,1994,04,08,13,115
2916500231,1994,04,08,14,123
2916500231,1994,04,08,15,131
2916500231,1994,04,08,16,131
2916500231,1994,04,08,17,131
2916500231,1994,04,08,18,131
2916500231,1994,04,08,19,115
2916500231,1994,04,08,20,108
2916500231,1994,04,08,21,108
2916500231,1994,04,08,22,100
2916500231,1994,04,08,23,92
2916500231,1994,04,09,00,92
2916500231,1994,04,09,01,76
2916500231,1994,04,09,02,76
2916500231,1994,04,09,03,68
2916500231,1994,04,09,04,37
2916500231,1994,04,09,05,53
2916500231,1994,04,09,06,6
2916500231,1994,04,09,07,22
2916500231,1994,04,09,08,37
2916500231,1994,04,09,09,29
2916500231,1994,04,09,10,29
2916500231,1994,04,09,11,53
2916500231,1994,04,09,12,84
2916500231,1994,04,09,13,84
2916500231,1994,04,09,14,92
2916500231,1994,04,09,15,84
2916500231,1994,04,09,16,84
2916500231,1994,04,09,18,76
2916500231,1994,04,09,19,84
2916500231,1994,04,09,20,84
2916500231,1994,04,09,21,84
2916500231,1994,04,09,22,84
2916500231,1994,04,09,23,84
2916500231,1994,04,10,00,84
2916500231,1994,04,10,01,84
2916500231,1994,04,10,02,84
2916500231,1994,04,10,03,76
2916500231,1994,04,10,04,68
2916500231,1994,04,10,05,68
2916500231,1994,04,10,06,68
2916500231,1994,04,10,07,68
2916500231,1994,04,10,08,68
2916500231,1994,04,10,09,68
2916500231,1994,04,10,10,76
2916500231,1994,04,10,11,76
2916500231,1994,04,10,12,76
2916500231,1994,04,10,13,76
2916500231,1994,04,10,14,76
2916500231,1994,04,10,15,76
2916500231,1994,04,10,16,84
2916500231,1994,04,10,17,84
2916500231,1994,04,10,18,76
2916500231,1994,04,10,19,68
2916500231,1994,04,10,20,76
2916500231,1994,04,10,21,76
2916500231,1994,04,10,23,84
2916500231,1994,04,11,00,84
2916500231,1994,04,11,01,84
2916500231,1994,04,11,02,84
2916500231,1994,04,11,04,76
2916500231,1994,04,11,05,68
2916500231,1994,04,11,06,61
2916500231,1994,04,11,07,53
2916500231,1994,04,11,08,53
2916500231,1994,04,11,09,53
2916500231,1994,04,11,10,61
2916500231,1994,04,11,12,61
2916500231,1994,04,11,13,61
2916500231,1994,04,11,14,61
2916500231,1994,04,11,15,61
2916500231,1994,04,11,16,61
2916500231,1994,04,11,17,61
2916500231,1994,04,11,18,61
2916500231,1994,04,11,19,61
2916500231,1994,04,11,20,61
2916500231,1994,04,11,21,61
2916500231,1994,04,11,22,53
2916500231,1994,04,11,23,53
2916500231,1994,04,12,00,53
2916500231,1994,04,12,01,45
2916500231,1994,04,12,02,37
2916500231,1994,04,12,03,37
2916500231,1994,04,12,04,45
2916500231,1994,04,12,05,53
2916500231,1994,04,12,06,53
2916500231,1994,04,12,07,61
2916500231,1994,04,12,09,53
2916500231,1994,04,12,10,53
2916500231,1994,04,12,11,45
2916500231,1994,04,12,12,29
2916500231,1994,04,12,13,22
2916500231,1994,04,12,14,22
2916500231,1994,04,12,15,29
2916500231,1994,04,12,16,29
2916500231,1994,04,12,17,29
2916500231,1994,04,12,18,37
2916500231,1994,04,12,19,37
2916500231,1994,04,12,20,37
2916500231,1994,04,12,21,37
2916500231,1994,04,12,22,45
2916500231,1994,04,12,23,37
2916500231,1994,04,13,00,37
2916500231,1994,04,13,01,37
2916500231,1994,04,13,02,37
2916500231,1994,04,13,03,45
2916500231,1994,04,13,04,45
2916500231,1994,04,13,05,53
2916500231,1994,04,13,06,45
2916500231,1994,04,13,07,53
2916500231,1994,04,13,08,68
2916500231,1994,04,13,09,68
2916500231,1994,04,13,10,84
2916500231,1994,04,13,11,84
2916500231,1994,04,13,12,92
2916500231,1994,04,13,14,108
2916500231,1994,04,13,15,115
2916500231,1994,04,13,16,123
2916500231,1994,04,13,17,131
2916500231,1994,04,13,18,131
2916500231,1994,04,13,19,131
2916500231,1994,04,13,20,123
2916500231,1994,04,13,21,92
2916500231,1994,04,13,22,61
2916500231,1994,04,13,23,61
2916500231,1994,04,14,00,76
2916500231,1994,04,14,01,84
2916500231,1994,04,14,02,76
2916500231,1994,04,14,03,14
2916500231,1994,04,14,04,14
2916500231,1994,04,14,05,22
2916500231,1994,04,14,06,22
2916500231,1994,04,14,07,53
2916500231,1994,04,14,08,61
2916500231,1994,04,14,09,76
2916500231,1994,04,14,10,108
2916500231,1994,04,14,11,123
2916500231,1994,04,14,12,139
2916500231,1994,04,14,13,139
2916500231,1994,04,14,14,131
2916500231,1994,04,14,15,123
2916500231,1994,04,14,16,123
2916500231,1994,04,14,17,115
2916500231,1994,04,14,19,100
2916500231,1994,04,14,20,92
2916500231,1994,04,14,21,76
2916500231,1994,04,14,22,68
2916500231,1994,04,15,00,37
2916500231,1994,04,15,01,53
2916500231,1994,04,15,02,61
2916500231,1994,04,15,03,61
2916500231,1994,04,15,04,45
2916500231,1994,04,15,05,61
2916500231,1994,04,15,06,45
2916500231,1994,04,15,07,29
2916500231,1994,04,15,08,37
2916500231,1994,04,15,09,29
2916500231,1994,04,15,10,37
2916500231,1994,04,15,11,37
2916500231,1994,04,15,12,45
2916500231,1994,04,15,13,45
2916500231,1994,04,15,14,45
2916500231,1994,04,15,15,45
2916500231,1994,04,15,16,45
2916500231,1994,04,15,17,53
2916500231,1994,04,15,18,53
2916500231,1994,04,15,19,53
2916500231,1994,04,15,20,61
2916500231,1994,04,15,21,61
2916500231,1994,04,15,22,61
2916500231,1994,04,15,23,61
2916500231,1994,04,16,00,61
2916500231,1994,04,16,01,61
2916500231,1994,04,16,02,53
2916500231,1994,04,16,03,37
2916500231,1994,04,16,05,37
2916500231,1994,04,16,06,53
2916500231,1994,04,16,07,61
2916500231,1994,04,16,08,61
2916500231,1994,04,16,09,61
2916500231,1994,04,16,10,53
2916500231,1994,04,16,11,53
2916500231,1994,04,16,12,61
2916500231,1994,04,16,13,61
2916500231,1994,04,16,14,61
2916500231,1994,04,16,15,61
2916500231,1994,04,16,16,76
2916500231,1994,04,16,17,84
2916500231,1994,04,16,18,68
2916500231,1994,04,16,19,37
2916500231,1994,04,16,20,76
2916500231,1994,04,16,21,29
2916500231,1994,04,16,22,37
2916500231,1994,04,16,23,61
2916500231,1994,04,17,00,68
2916500231,1994,04,17,01,76
2916500231,1994,04,17,02,68
2916500231,1994,04,17,03,53
2916500231,1994,04,17,04,29
2916500231,1994,04,17,05,14
2916500231,1994,04,17,06,22
2916500231,1994,04,17,07,37
2916500231,1994,04,17,08,61
2916500231,1994,04,17,10,92
2916500231,1994,04,17,11,131
2916500231,1994,04,17,12,131
2916500231,1994,04,17,13,123
2916500231,1994,04,17,14,123
2916500231,1994,04,17,15,123
2916500231,1994,04,17,16,123
2916500231,1994,04,17,17,123
2916500231,1994,04,17,18,123
2916500231,1994,04,17,19,131
2916500231,1994,04,17,20,123
2916500231,1994,04,17,21,123
2916500231,1994,04,17,22,123
2916500231,1994,04,17,23,108
2916500231,1994,04,18,00,100
2916500231,1994,04,18,01,92
2916500231,1994,04,18,02,92
2916500231,1994,04,18,03,92
2916500231,1994,04,18,04,92
2916500231,1994,04,18,05,92
2916500231,1994,04,18,06,92
2916500231,1994,04,18,07,92
2916500231,1994,04,18,08,92
2916500231,1994,04,18,09,100
2916500231,1994,04,18,10,100
2916500231,1994,04,18,11,108
2916500231,1994,04,18,12,123
2916500231,1994,04,18,13,131
2916500231,1994,04,18,15,139
2916500231,1994,04,18,16,139
2916500231,1994,04,18,17,139
2916500231,1994,04,18,18,123
2916500231,1994,04,18,19,123
2916500231,1994,04,18,20,115
2916500231,1994,04,18,21,100
2916500231,1994,04,18,22,84
2916500231,1994,04,18,23,92
2916500231,1994,04,19,00,84
2916500231,1994,04,19,01,76
2916500231,1994,04,19,02,76
2916500231,1994,04,19,03,68
2916500231,1994,04,19,04,68
2916500231,1994,04,19,05,61
2916500231,1994,04,19,06,76
2916500231,1994,04,19,07,84
2916500231,1994,04,19,08,84
2916500231,1994,04,19,09,84
2916500231,1994,04,19,10,92
2916500231,1994,04,19,11,100
2916500231,1994,04,19,12,100
2916500231,1994,04,19,13,108
2916500231,1994,04,19,15,100
2916500231,1994,04,19,16,100
2916500231,1994,04,19,17,92
2916500231,1994,04,19,18,76
2916500231,1994,04,19,20,61
2916500231,1994,04,19,21,53
2916500231,1994,04,19,22,22
2916500231,1994,04,19,23,6
2916500231,1994,04,20,01,45
2916500231,1994,04,20,02,45
2916500231,1994,04,20,03,53
2916500231,1994,04,20,04,61
2916500231,1994,04,20,05,61
2916500231,1994,04,20,06,53
2916500231,1994,04,20,07,61
2916500231,1994,04,20,08,68
2916500231,1994,04,20,09,68
2916500231,1994,04,20,10,76
2916500231,1994,04,20,11,92
2916500231,1994,04,20,12,108
2916500231,1994,04,20,13,115
2916500231,1994,04,20,14,123
2916500231,1994,04,20,15,131
2916500231,1994,04,20,16,131
2916500231,1994,04,20,17,131
2916500231,1994,04,20,18,115
2916500231,1994,04,20,19,92
2916500231,1994,04,20,20,100
2916500231,1994,04,20,21,76
2916500231,1994,04,20,22,92
2916500231,1994,04,20,23,84
2916500231,1994,04,21,00,76
2916500231,1994,04,21,01,68
2916500231,1994,04,21,02,68
2916500231,1994,04,21,03,61
2916500231,1994,04,21,04,61
2916500231,1994,04,21,06,61
2916500231,1994,04,21,07,61
2916500231,1994,04,21,08,61
2916500231,1994,04,21,09,76
2916500231,1994,04,21,10,76
2916500231,1994,04,21,11,84
2916500231,1994,04,21,12,76
2916500231,1994,04,21,13,84
2916500231,1994,04,21,14,76
2916500231,1994,04,21,15,76
2916500231,1994,04,21,16,92
2916500231,1994,04,21,17,100
2916500231,1994,04,21,18,100
2916500231,1994,04,21,19,92
2916500231,1994,04,21,20,92
2916500231,1994,04,21,21,92
2916500231,1994,04,21,22,92
2916500231,1994,04,21,23,92
2916500231,1994,04,22,00,84
2916500231,1994,04,22,01,92
2916500231,1994,04,22,02,84
2916500231,1994,04,22,03,68
2916500231,1994,04,22,04,53
2916500231,1994,04,22,05,53
2916500231,1994,04,22,06,53
2916500231,1994,04,22,07,45
2916500231,1994,04,22,08,61
2916500231,1994,04,22,09,68
2916500231,1994,04,22,11,100
2916500231,1994,04,22,12,100
2916500231,1994,04,22,13,108
2916500231,1994,04,22,14,108
2916500231,1994,04,22,15,115
2916500231,1994,04,22,16,123
2916500231,1994,04,22,17,115
2916500231,1994,04,22,18,108
2916500231,1994,04,22,19,92
2916500231,1994,04,22,20,76
2916500231,1994,04,22,21,61
2916500231,1994,04,22,22,61
2916500231,1994,04,22,23,68
2916500231,1994,04,23,00,84
2916500231,1994,04,23,01,76
2916500231,1994,04,23,02,61
2916500231,1994,04,23,03,61
2916500231,1994,04,23,04,68
2916500231,1994,04,23,05,61
2916500231,1994,04,23,06,68
2916500231,1994,04,23,07,68
2916500231,1994,04,23,08,76
2916500231,1994,04,23,09,76
2916500231,1994,04,23,10,100
2916500231,1994,04,23,11,115
2916500231,1994,04,23,12,115
2916500231,1994,04,23,13,115
2916500231,1994,04,23,14,123
2916500231,1994,04,23,16,131
2916500231,1994,04,23,17,131
2916500231,1994,04,23,18,123
2916500231,1994,04,23,19,108
2916500231,1994,04,23,20,84
2916500231,1994,04,23,21,92
2916500231,1994,04,23,22,108
2916500231,1994,04,23,23,108
2916500231,1994,04,24,00,115
2916500231,1994,04,24,01,108
2916500231,1994,04,24,02,100
2916500231,1994,04,24,03,100
2916500231,1994,04,24,04,100
2916500231,1994,04,24,05,100
2916500231,1994,04,24,06,100
2916500231,1994,04,24,07,100
2916500231,1994,04,24,08,100
2916500231,1994,04,24,09,100
2916500231,1994,04,24,10,100
2916500231,1994,04,24,11,100
2916500231,1994,04,24,12,108
2916500231,1994,04,24,13,108
2916500231,1994,04,24,14,115
2916500231,1994,04,24,15,115
2916500231,1994,04,24,16,123
2916500231,1994,04,24,17,115
2916500231,1994,04,24,18,115
2916500231,1994,04,24,19,115
2916500231,1994,04,24,21,115
2916500231,1994,04,24,22,100
2916500231,1994,04,24,23,92
2916500231,1994,04,25,00,84
2916500231,1994,04,25,02,76
2916500231,1994,04,25,03,68
2916500231,1994,04,25,04,61
2916500231,1994,04,25,05,61
2916500231,1994,04,25,06,53
2916500231,1994,04,25,07,53
2916500231,1994,04,25,08,53
2916500231,1994,04,25,09,53
2916500231,1994,04,25,10,61
2916500231,1994,04,25,11,61
2916500231,1994,04,25,12,61
2916500231,1994,04,25,13,61
2916500231,1994,04,25,14,61
2916500231,1994,04,25,15,61
2916500231,1994,04,25,16,61
2916500231,1994,04,25,17,53
2916500231,1994,04,25,18,68
2916500231,1994,04,25,19,61
2916500231,1994,04,25,20,45
2916500231,1994,04,25,21,45
2916500231,1994,04,25,22,45
2916500231,1994,04,25,23,53
2916500231,1994,04,26,00,53
2916500231,1994,04,26,01,53
2916500231,1994,04,26,02,53
2916500231,1994,04,26,03,53
2916500231,1994,04,26,04,53
2916500231,1994,04,26,05,45
2916500231,1994,04,26,07,61
2916500231,1994,04,26,08,53
2916500231,1994,04,26,09,61
2916500231,1994,04,26,10,68
2916500231,1994,04,26,11,76
2916500231,1994,04,26,12,84
2916500231,1994,04,26,13,76
2916500231,1994,04,26,14,76
2916500231,1994,04,26,15,76
2916500231,1994,04,26,16,53
2916500231,1994,04,26,17,45
2916500231,1994,04,26,18,45
2916500231,1994,04,26,19,53
2916500231,1994,04,26,20,53
2916500231,1994,04,26,21,53
2916500231,1994,04,26,22,53
2916500231,1994,04,26,23,45
2916500231,1994,04,27,00,45
2916500231,1994,04,27,01,45
2916500231,1994,04,27,02,45
2916500231,1994,04,27,03,45
2916500231,1994,04,27,04,37
2916500231,1994,04,27,05,29
2916500231,1994,04,27,06,29
2916500231,1994,04,27,07,45
2916500231,1994,04,27,08,45
2916500231,1994,04,27,09,45
2916500231,1994,04,27,10,53
2916500231,1994,04,27,12,37
2916500231,1994,04,27,13,37
2916500231,1994,04,27,14,37
2916500231,1994,04,27,15,45
2916500231,1994,04,27,16,37
2916500231,1994,04,27,17,45
2916500231,1994,04,27,18,45
2916500231,1994,04,27,19,45
2916500231,1994,04,27,20,37
2916500231,1994,04,27,21,37
2916500231,1994,04,27,22,37
2916500231,1994,04,27,23,45
2916500231,1994,04,28,00,45
2916500231,1994,04,28,01,45
2916500231,1994,04,28,02,37
2916500231,1994,04,28,03,45
2916500231,1994,04,28,04,53
2916500231,1994,04,28,05,45
2916500231,1994,04,28,06,22
2916500231,1994,04,28,07,29
2916500231,1994,04,28,08,22
2916500231,1994,04,28,09,37
2916500231,1994,04,28,10,68
2916500231,1994,04,28,11,68
2916500231,1994,04,28,13,14
2916500231,1994,04,28,14,22
2916500231,1994,04,28,15,22
2916500231,1994,04,28,17,22
2916500231,1994,04,28,18,29
2916500231,1994,04,28,19,29
2916500231,1994,04,28,20,37
2916500231,1994,04,28,21,37
2916500231,1994,04,28,22,37
2916500231,1994,04,28,23,61
2916500231,1994,04,29,00,61
2916500231,1994,04,29,01,61
2916500231,1994,04,29,02,53
2916500231,1994,04,29,03,53
2916500231,1994,04,29,04,45
2916500231,1994,04,29,05,37
2916500231,1994,04,29,06,37
2916500231,1994,04,29,07,45
2916500231,1994,04,29,08,53
2916500231,1994,04,29,09,61
2916500231,1994,04,29,10,68
2916500231,1994,04,29,11,68
2916500231,1994,04,29,12,68
2916500231,1994,04,29,13,68
2916500231,1994,04,29,14,68
2916500231,1994,04,29,15,68
2916500231,1994,04,29,16,68
2916500231,1994,04,29,17,68
2916500231,1994,04,29,18,61
2916500231,1994,04,29,19,61
2916500231,1994,04,29,20,61
2916500231,1994,04,29,22,68
2916500231,1994,04,29,23,68
2916500231,1994,04,30,00,76
2916500231,1994,04,30,01,76
2916500231,1994,04,30,03,61
2916500231,1994,04,30,04,61
2916500231,1994,04,30,05,53
2916500231,1994,04,30,06,53
2916500231,1994,04,30,07,45
2916500231,1994,04,30,08,45
2916500231,1994,04,30,09,53
2916500231,1994,04,30,10,45
2916500231,1994,04,30,11,45
2916500231,1994,04,30,12,53
2916500231,1994,04,30,13,53
2916500231,1994,04,30,14,53
2916500231,1994,04,30,15,61
2916500231,1994,04,30,16,61
2916500231,1994,04,30,17,68
2916500231,1994,04,30,18,68
2916500231,1994,04,30,19,68
2916500231,1994,04,30,20,61
2916500231,1994,04,30,21,61
2916500231,1994,04,30,22,61
2916500231,1994,04,30,23,61
2916500231,1994,05,01,00,61
2916500231,1994,05,01,01,61
2916500231,1994,05,01,02,53
2916500231,1994,05,01,03,53
2916500231,1994,05,01,04,37
2916500231,1994,05,01,05,14
2916500231,1994,05,01,06,37
2916500231,1994,05,01,08,68
2916500231,1994,05,01,09,84
2916500231,1994,05,01,10,84
2916500231,1994,05,01,11,84
2916500231,1994,05,01,12,84
2916500231,1994,05,01,13,92
2916500231,1994,05,01,14,84
2916500231,1994,05,01,15,76
2916500231,1994,05,01,16,76
2916500231,1994,05,01,17,76
2916500231,1994,05,01,18,68
2916500231,1994,05,01,19,61
2916500231,1994,05,01,20,61
2916500231,1994,05,01,21,61
2916500231,1994,05,01,22,45
2916500231,1994,05,01,23,37
2916500231,1994,05,02,00,45
2916500231,1994,05,02,01,53
2916500231,1994,05,02,02,53
2916500231,1994,05,02,03,53
2916500231,1994,05,02,04,45
2916500231,1994,05,02,05,45
2916500231,1994,05,02,06,45
2916500231,1994,05,02,07,37
2916500231,1994,05,02,08,45
2916500231,1994,05,02,09,53
2916500231,1994,05,02,10,53
2916500231,1994,05,02,11,61
2916500231,1994,05,02,13,37
2916500231,1994,05,02,14,53
2916500231,1994,05,02,15,68
2916500231,1994,05,02,16,61
2916500231,1994,05,02,17,68
2916500231,1994,05,02,18,68
2916500231,1994,05,02,19,61
2916500231,1994,05,02,20,53
2916500231,1994,05,02,21,53
2916500231,1994,05,02,22,37
2916500231,1994,05,02,23,45
2916500231,1994,05,03,00,45
2916500231,1994,05,03,01,37
2916500231,1994,05,03,02,45
2916500231,1994,05,03,03,53
2916500231,1994,05,03,04,45
2916500231,1994,05,03,05,22
2916500231,1994,05,03,06,29
2916500231,1994,05,03,07,53
2916500231,1994,05,03,08,53
2916500231,1994,05,03,09,76
2916500231,1994,05,03,10,84
2916500231,1994,05,03,12,84
2916500231,1994,05,03,13,100
2916500231,1994,05,03,14,108
2916500231,1994,05,03,15,108
2916500231,1994,05,03,16,108
2916500231,1994,05,03,18,84
2916500231,1994,05,03,19,76
2916500231,1994,05,03,20,61
2916500231,1994,05,03,21,45
2916500231,1994,05,03,22,45
2916500231,1994,05,03,23,37
2916500231,1994,05,04,00,53
2916500231,1994,05,04,01,37
2916500231,1994,05,04,02,45
2916500231,1994,05,04,03,45
2916500231,1994,05,04,04,14
2916500231,1994,05,04,05,6
2916500231,1994,05,04,06,14
2916500231,1994,05,04,07,29
2916500231,1994,05,04,08,61
2916500231,1994,05,04,09,76
2916500231,1994,05,04,10,92
2916500231,1994,05,04,11,100
2916500231,1994,05,04,12,100
2916500231,1994,05,04,13,100
2916500231,1994,05,04,14,108
2916500231,1994,05,04,15,100
2916500231,1994,05,04,16,108
2916500231,1994,05,04,17,100
2916500231,1994,05,04,18,84
2916500231,1994,05,04,19,61
2916500231,1994,05,04,20,76
2916500231,1994,05,04,21,68
2916500231,1994,05,04,23,45
2916500231,1994,05,05,00,22
2916500231,1994,05,05,01,14
2916500231,1994,05,05,02,22
2916500231,1994,05,05,04,6
2916500231,1994,05,05,05,6
2916500231,1994,05,05,06,14
2916500231,1994,05,05,07,22
2916500231,1994,05,05,08,45
2916500231,1994,05,05,09,84
2916500231,1994,05,05,10,92
2916500231,1994,05,05,11,108
2916500231,1994,05,05,12,115
2916500231,1994,05,05,13,115
2916500231,1994,05,05,14,108
2916500231,1994,05,05,15,108
2916500231,1994,05,05,16,108
2916500231,1994,05,05,17,108
2916500231,1994,05,05,18,100
2916500231,1994,05,05,19,100
2916500231,1994,05,05,20,84
2916500231,1994,05,05,21,84
2916500231,1994,05,05,22,108
2916500231,1994,05,05,23,108
2916500231,1994,05,06,00,92
2916500231,1994,05,06,01,92
2916500231,1994,05,06,02,84
2916500231,1994,05,06,03,68
2916500231,1994,05,06,04,68
2916500231,1994,05,06,05,61
2916500231,1994,05,06,06,61
2916500231,1994,05,06,07,45
2916500231,1994,05,06,09,61
2916500231,1994,05,06,10,68
2916500231,1994,05,06,11,76
2916500231,1994,05,06,12,84
2916500231,1994,05,06,13,53
2916500231,1994,05,06,14,53
2916500231,1994,05,06,15,45
2916500231,1994,05,06,16,53
2916500231,1994,05,06,17,45
2916500231,1994,05,06,18,37
2916500231,1994,05,06,19,37
2916500231,1994,05,06,20,45
2916500231,1994,05,06,21,45
2916500231,1994,05,06,22,45
2916500231,1994,05,06,23,45